Granite Falls, MN

4:56 AM CST on December 10, 2019 (GMT -0600)
Granite Falls

Weather History for KGDB - October, 2019

Change the Weather History Date:

Tuesday, October 8, 2019

  Actual Average (KMVE) Record (KMVE)
Temperature  
Mean Temperature 63 °F -  
Max Temperature 75 °F 62 °F 90 °F (1980)
Min Temperature 51 °F 39 °F 17 °F (2000)
Degree Days  
Heating Degree Days 2    
Growing Degree Days 13 (Base 50)    
Moisture  
Dew Point 44 °F    
Average Humidity 53    
Maximum Humidity 73    
Minimum Humidity 35    
Precipitation  
Precipitation 0.00 in - - ()
Sea Level Pressure  
Sea Level Pressure 29.86 in    
Wind  
Wind Speed 13 mph (SSE)    
Max Wind Speed 28 mph    
Max Gust Speed 38 mph    
Visibility 10 miles    
Events      
Averages and records for this station are not official NWS values.
T = Trace of Precipitation, MM = Missing Value Source: NWS Daily Summary

Daily Weather History Graph

Daily Weather History Graph

Search for Another Location

Airport or City:

Astronomy

Oct. 08, 2019 Rise Set
Actual Time 7:28 AM CDT 6:50 PM CDT
Civil Twilight 6:59 AM CDT 7:19 PM CDT
Nautical Twilight 6:25 AM CDT 7:53 PM CDT
Astronomical Twilight 5:51 AM CDT 8:27 PM CDT
Moon 5:04 PM CDT (10/8) 2:02 AM CDT (10/8)
Length of Visible Light 12h 20m
Length of Day
11h 21m
Waxing Gibbous, 78% of the Moon is Illuminated
Oct 8
Waxing Gibbous
Oct 13
Full
Oct 21
Last Quarter
Oct 27
New
Nov 4
First Quarter

Hourly Weather History & Observations

Time (CDT) Temp. Dew Point Humidity Pressure Visibility Wind Dir Wind Speed Gust Speed Precip Events Conditions
12:15 AM 51.4 °F 42.3 °F 71% 29.98 in 10.0 mi SSE 6.9 mph - N/A   Clear
12:37 AM 51.1 °F 42.6 °F 73% 29.97 in 10.0 mi SSE 8.1 mph - N/A   Clear
12:55 AM 51.4 °F 43.0 °F 73% 29.96 in 10.0 mi SSE 6.9 mph - N/A   Clear
1:15 AM 52.3 °F 43.7 °F 72% 29.95 in 10.0 mi SSE 9.2 mph - N/A   Clear
1:35 AM 52.3 °F 43.7 °F 72% 29.95 in 10.0 mi SSE 9.2 mph - N/A   Clear
1:36 AM 52.3 °F 43.7 °F 72% 29.95 in 10.0 mi SSE 9.2 mph - N/A   Clear
1:59 AM 52.9 °F 43.7 °F 71% 29.95 in 10.0 mi SSE 9.2 mph - N/A   Clear
2:16 AM 53.1 °F 43.7 °F 71% 29.95 in 10.0 mi SSE 9.2 mph - N/A   Clear
2:55 AM 54.5 °F 43.0 °F 65% 29.94 in 10.0 mi South 10.4 mph - N/A   Clear
2:56 AM 54.7 °F 43.0 °F 65% 29.94 in 10.0 mi South 9.2 mph - N/A   Clear
3:15 AM 56.3 °F 42.8 °F 61% 29.94 in 10.0 mi South 11.5 mph 17.3 mph N/A   Clear
3:19 AM 56.1 °F 42.8 °F 61% 29.94 in 10.0 mi South 10.4 mph 17.3 mph N/A   Clear
3:37 AM 56.3 °F 42.4 °F 60% 29.93 in 10.0 mi South 10.4 mph - N/A   Clear
3:56 AM 56.8 °F 41.9 °F 57% 29.93 in 10.0 mi South 12.7 mph - N/A   Clear
4:15 AM 55.9 °F 42.3 °F 60% 29.93 in 10.0 mi South 10.4 mph - N/A   Clear
4:16 AM 55.9 °F 42.3 °F 60% 29.93 in 10.0 mi South 10.4 mph - N/A   Clear
4:35 AM 55.8 °F 41.9 °F 60% 29.92 in 10.0 mi South 11.5 mph - N/A   Clear
4:36 AM 55.9 °F 42.1 °F 60% 29.92 in 10.0 mi South 11.5 mph - N/A   Clear
4:58 AM 55.0 °F 41.9 °F 61% 29.92 in 10.0 mi South 12.7 mph 16.1 mph N/A   Clear
5:16 AM 55.0 °F 41.9 °F 61% 29.92 in 10.0 mi SSE 11.5 mph 17.3 mph N/A   Clear
5:35 AM 55.0 °F 41.9 °F 61% 29.92 in 10.0 mi SSE 11.5 mph - N/A   Clear
5:55 AM 55.0 °F 41.9 °F 61% 29.91 in 10.0 mi SSE 13.8 mph 17.3 mph N/A   Clear
5:56 AM 55.0 °F 41.9 °F 61% 29.91 in 10.0 mi SSE 13.8 mph 17.3 mph N/A   Clear
6:15 AM 54.3 °F 41.9 °F 63% 29.91 in 10.0 mi SSE 10.4 mph 16.1 mph N/A   Clear
6:19 AM 54.1 °F 41.9 °F 63% 29.91 in 10.0 mi SSE 10.4 mph - N/A   Clear
6:38 AM 53.6 °F 42.1 °F 65% 29.91 in 10.0 mi SSE 10.4 mph - N/A   Clear
6:55 AM 53.4 °F 41.9 °F 65% 29.91 in 10.0 mi SSE 10.4 mph - N/A   Clear
7:15 AM 54.0 °F 42.1 °F 64% 29.91 in 10.0 mi SSE 10.4 mph - N/A   Clear
7:16 AM 54.0 °F 42.1 °F 64% 29.91 in 10.0 mi SSE 10.4 mph - N/A   Clear
7:35 AM 54.1 °F 41.5 °F 62% 29.90 in 7.0 mi SSE 10.4 mph - N/A   Clear
7:58 AM 55.0 °F 41.4 °F 60% 29.90 in 10.0 mi SSE 11.5 mph - N/A   Clear
8:17 AM 56.7 °F 41.7 °F 57% 29.89 in 10.0 mi SSE 13.8 mph 19.6 mph N/A   Clear
8:36 AM 58.1 °F 41.9 °F 55% 29.89 in 10.0 mi SSE 18.4 mph 24.2 mph N/A   Clear
8:55 AM 59.0 °F 42.4 °F 54% 29.89 in 10.0 mi SSE 16.1 mph 23.0 mph N/A   Clear
8:56 AM 59.2 °F 42.6 °F 54% 29.89 in 10.0 mi SSE 15.0 mph 23.0 mph N/A   Clear
9:15 AM 60.3 °F 42.6 °F 52% 29.89 in 10.0 mi SSE 16.1 mph 24.2 mph N/A   Clear
9:37 AM 61.5 °F 42.4 °F 50% 29.89 in 10.0 mi SSE 18.4 mph 25.3 mph N/A   Clear
9:55 AM 61.5 °F 42.3 °F 49% 29.89 in 10.0 mi South 20.7 mph 25.3 mph N/A   Clear
10:15 AM 63.7 °F 42.6 °F 46% 29.89 in 10.0 mi South 18.4 mph 28.8 mph N/A   Clear
10:16 AM 63.7 °F 42.8 °F 47% 29.89 in 10.0 mi South 20.7 mph 28.8 mph N/A   Clear
10:35 AM 65.3 °F 43.0 °F 44% 29.89 in 10.0 mi SSE 20.7 mph 27.6 mph N/A   Clear
10:36 AM 65.3 °F 42.8 °F 44% 29.89 in 10.0 mi South 23.0 mph 31.1 mph N/A   Clear
10:58 AM 67.3 °F 42.6 °F 41% 29.88 in 10.0 mi South 21.9 mph 33.4 mph N/A   Clear
11:16 AM 68.2 °F 42.4 °F 39% 29.87 in 10.0 mi South 24.2 mph 32.2 mph N/A   Clear
11:36 AM 68.2 °F 42.3 °F 39% 29.86 in 10.0 mi South 23.0 mph 34.5 mph N/A   Clear
11:55 AM 68.4 °F 42.1 °F 38% 29.85 in 10.0 mi SSE 24.2 mph 38.0 mph N/A   Clear
12:15 PM 70.0 °F 42.8 °F 37% 29.85 in 10.0 mi SSE 27.6 mph 35.7 mph N/A   Clear
12:19 PM 70.0 °F 42.1 °F 36% 29.84 in 10.0 mi SSE 26.5 mph 33.4 mph N/A   Clear
12:37 PM 71.1 °F 42.8 °F 36% 29.84 in 10.0 mi SSE 23.0 mph 35.7 mph N/A   Clear
12:56 PM 71.6 °F 43.0 °F 36% 29.83 in 10.0 mi SSE 26.5 mph 35.7 mph N/A   Clear
1:15 PM 71.8 °F 43.5 °F 36% 29.83 in 10.0 mi South 25.3 mph 35.7 mph N/A   Clear
1:35 PM 72.5 °F 44.4 °F 36% 29.82 in 10.0 mi SSE 21.9 mph 36.8 mph N/A   Clear
1:36 PM 72.7 °F 44.4 °F 36% 29.82 in 10.0 mi SSE 23.0 mph 36.8 mph N/A   Clear
1:58 PM 73.4 °F 44.2 °F 35% 29.81 in 10.0 mi South 24.2 mph 33.4 mph N/A   Clear
2:16 PM 73.8 °F 44.2 °F 35% 29.81 in 10.0 mi SSE 17.3 mph 29.9 mph N/A   Clear
2:35 PM 73.9 °F 44.6 °F 35% 29.80 in 10.0 mi SSE 23.0 mph 29.9 mph N/A   Clear
2:36 PM 73.9 °F 44.4 °F 35% 29.80 in 10.0 mi SSE 20.7 mph 29.9 mph N/A   Clear
2:55 PM 73.9 °F 44.8 °F 35% 29.80 in 10.0 mi SSE 20.7 mph 32.2 mph N/A   Clear
3:15 PM 73.8 °F 45.0 °F 36% 29.80 in 10.0 mi SSE 24.2 mph 29.9 mph N/A   Clear
3:20 PM 73.6 °F 45.3 °F 36% 29.80 in 10.0 mi SSE 20.7 mph 29.9 mph N/A   Clear
3:38 PM 73.9 °F 46.0 °F 37% 29.80 in 10.0 mi SSE 20.7 mph 27.6 mph N/A   Clear
3:55 PM 73.8 °F 46.0 °F 37% 29.79 in 10.0 mi SSE 15.0 mph 28.8 mph N/A   Clear
4:15 PM 74.3 °F 46.2 °F 37% 29.78 in 10.0 mi SSE 19.6 mph 29.9 mph N/A   Clear
4:16 PM 74.3 °F 46.2 °F 37% 29.78 in 10.0 mi SSE 20.7 mph 29.9 mph N/A   Clear
4:35 PM 75.2 °F 46.8 °F 36% 29.79 in 10.0 mi SSE 17.3 mph 24.2 mph N/A   Clear
4:36 PM 75.2 °F 46.6 °F 36% 29.79 in 10.0 mi SSE 20.7 mph 24.2 mph N/A   Clear
4:58 PM 73.4 °F 45.7 °F 37% 29.79 in 10.0 mi SSE 17.3 mph 25.3 mph N/A   Clear
5:17 PM 73.2 °F 46.0 °F 38% 29.79 in 10.0 mi SSE 13.8 mph 23.0 mph N/A   Clear
5:36 PM 72.5 °F 46.2 °F 39% 29.79 in 10.0 mi SSE 16.1 mph 20.7 mph N/A   Clear
5:56 PM 71.8 °F 45.7 °F 39% 29.79 in 10.0 mi SSE 13.8 mph 26.5 mph N/A   Clear
6:15 PM 70.7 °F 45.7 °F 41% 29.79 in 10.0 mi SSE 15.0 mph 23.0 mph N/A   Clear
6:37 PM 67.6 °F 47.3 °F 48% 29.80 in 10.0 mi SSE 8.1 mph - N/A   Clear
6:55 PM 66.4 °F 47.3 °F 50% 29.80 in 10.0 mi SE 8.1 mph - N/A   Clear
7:15 PM 65.5 °F 46.8 °F 51% 29.80 in 10.0 mi SE 9.2 mph - N/A   Clear
7:16 PM 65.3 °F 46.8 °F 51% 29.81 in 10.0 mi SE 9.2 mph - N/A   Clear
7:35 PM 64.8 °F 47.3 °F 53% 29.81 in 10.0 mi SE 9.2 mph - N/A   Clear
7:36 PM 64.8 °F 47.5 °F 53% 29.81 in 10.0 mi SE 9.2 mph - N/A   Clear
7:59 PM 63.5 °F 46.8 °F 54% 29.82 in 10.0 mi SE 9.2 mph - N/A   Clear
8:16 PM 63.0 °F 46.8 °F 55% 29.82 in 10.0 mi SE 9.2 mph - N/A   Clear
8:36 PM 61.2 °F 46.4 °F 58% 29.82 in 10.0 mi SE 9.2 mph - N/A   Clear
8:55 PM 59.7 °F 46.6 °F 62% 29.82 in 10.0 mi SE 8.1 mph - N/A   Clear
9:15 PM 60.8 °F 46.4 °F 59% 29.83 in 10.0 mi SE 10.4 mph - N/A   Clear
9:19 PM 60.8 °F 46.4 °F 59% 29.83 in 10.0 mi SE 8.1 mph - N/A   Clear
9:37 PM 60.3 °F 46.0 °F 59% 29.83 in 10.0 mi SE 8.1 mph - N/A   Clear
9:56 PM 59.4 °F 45.9 °F 61% 29.84 in 10.0 mi ESE 6.9 mph - N/A   Clear
10:15 PM 58.1 °F 45.7 °F 63% 29.84 in 10.0 mi SE 6.9 mph - N/A   Clear
10:16 PM 57.9 °F 45.7 °F 64% 29.84 in 10.0 mi SE 8.1 mph - N/A   Clear
10:35 PM 58.1 °F 45.7 °F 63% 29.84 in 10.0 mi SE 8.1 mph - N/A   Clear
10:36 PM 58.3 °F 45.7 °F 63% 29.84 in 10.0 mi SE 8.1 mph - N/A   Clear
10:58 PM 59.0 °F 45.5 °F 61% 29.84 in 10.0 mi SE 10.4 mph - N/A   Clear
11:16 PM 60.8 °F 45.1 °F 56% 29.84 in 10.0 mi SE 10.4 mph 19.6 mph N/A   Clear
11:35 PM 60.1 °F 45.5 °F 59% 29.83 in 10.0 mi SE 10.4 mph - N/A   Clear
11:36 PM 59.9 °F 45.5 °F 59% 29.83 in 10.0 mi SE 10.4 mph - N/A   Clear
11:55 PM 59.0 °F 45.7 °F 61% 29.83 in 10.0 mi SE 10.4 mph - N/A   Clear
11:56 PM 59.0 °F 45.9 °F 62% 29.83 in 10.0 mi SE 9.2 mph - N/A   Clear